Year,Month,Day,Hour,Minute,Value (Times are PST for temperature in C)
2013,08,26,00,00,15.70
2013,08,26,00,01,15.70
2013,08,26,00,02,15.70
2013,08,26,00,03,15.60
2013,08,26,00,04,15.60
2013,08,26,00,05,15.60
2013,08,26,00,06,15.70
2013,08,26,00,07,15.70
2013,08,26,00,08,15.70
2013,08,26,00,09,15.70
2013,08,26,00,10,15.70
2013,08,26,00,11,15.70
2013,08,26,00,12,15.70
2013,08,26,00,13,15.70
2013,08,26,00,14,15.70
2013,08,26,00,15,15.70
2013,08,26,00,16,15.70
2013,08,26,00,17,15.70
2013,08,26,00,18,15.70
2013,08,26,00,19,15.70
2013,08,26,00,20,15.70
2013,08,26,00,21,15.70
2013,08,26,00,22,15.70
2013,08,26,00,23,15.80
2013,08,26,00,24,15.80
2013,08,26,00,25,15.70
2013,08,26,00,26,15.70
2013,08,26,00,27,15.70
2013,08,26,00,28,15.70
2013,08,26,00,29,15.70
2013,08,26,00,30,15.60
2013,08,26,00,31,15.60
2013,08,26,00,32,15.60
2013,08,26,00,33,15.60
2013,08,26,00,34,15.60
2013,08,26,00,35,15.50
2013,08,26,00,36,15.50
2013,08,26,00,37,15.40
2013,08,26,00,38,15.30
2013,08,26,00,39,15.30
2013,08,26,00,40,15.20
2013,08,26,00,41,15.10
2013,08,26,00,42,15.10
2013,08,26,00,43,15.00
2013,08,26,00,44,15.00
2013,08,26,00,45,15.00
2013,08,26,00,46,15.00
2013,08,26,00,47,15.00
2013,08,26,00,48,14.90
2013,08,26,00,49,14.90
2013,08,26,00,50,14.80
2013,08,26,00,51,14.80
2013,08,26,00,52,14.70
2013,08,26,00,53,14.60
2013,08,26,00,54,14.50
2013,08,26,00,55,14.50
2013,08,26,00,56,14.40
2013,08,26,00,57,14.40
2013,08,26,00,58,14.40
2013,08,26,00,59,14.40
2013,08,26,01,00,14.40
2013,08,26,01,01,14.40
2013,08,26,01,02,14.40
2013,08,26,01,03,14.40
2013,08,26,01,04,14.40
2013,08,26,01,05,14.40
2013,08,26,01,06,14.40
2013,08,26,01,07,14.40
2013,08,26,01,08,14.40
2013,08,26,01,09,14.30
2013,08,26,01,10,14.30
2013,08,26,01,11,14.30
2013,08,26,01,12,14.30
2013,08,26,01,13,14.30
2013,08,26,01,14,14.30
2013,08,26,01,15,14.30
2013,08,26,01,16,14.30
2013,08,26,01,17,14.30
2013,08,26,01,18,14.30
2013,08,26,01,19,14.30
2013,08,26,01,20,14.30
2013,08,26,01,21,14.20
2013,08,26,01,22,14.20
2013,08,26,01,23,14.20
2013,08,26,01,24,14.20
2013,08,26,01,25,14.20
2013,08,26,01,26,14.20
2013,08,26,01,27,14.30
2013,08,26,01,28,14.20
2013,08,26,01,29,14.20
2013,08,26,01,30,14.20
2013,08,26,01,31,14.20
2013,08,26,01,32,14.20
2013,08,26,01,33,14.30
2013,08,26,01,34,14.30
2013,08,26,01,35,14.30
2013,08,26,01,36,14.40
2013,08,26,01,37,14.40
2013,08,26,01,38,14.40
2013,08,26,01,39,14.40
2013,08,26,01,40,14.40
2013,08,26,01,41,14.40
2013,08,26,01,42,14.40
2013,08,26,01,43,14.40
2013,08,26,01,44,14.40
2013,08,26,01,45,14.40
2013,08,26,01,46,14.40
2013,08,26,01,47,14.40
2013,08,26,01,48,14.40
2013,08,26,01,49,14.40
2013,08,26,01,50,14.40
2013,08,26,01,51,14.50
2013,08,26,01,52,14.40
2013,08,26,01,53,14.40
2013,08,26,01,54,14.30
2013,08,26,01,55,14.30
2013,08,26,01,56,14.40
2013,08,26,01,57,14.40
2013,08,26,01,58,14.40
2013,08,26,01,59,14.40
2013,08,26,02,00,14.40
2013,08,26,02,01,14.30
2013,08,26,02,02,14.30
2013,08,26,02,03,14.20
2013,08,26,02,04,14.10
2013,08,26,02,05,14.10
2013,08,26,02,06,14.00
2013,08,26,02,07,13.90
2013,08,26,02,08,13.90
2013,08,26,02,09,13.80
2013,08,26,02,10,13.80
2013,08,26,02,11,13.80
2013,08,26,02,12,13.80
2013,08,26,02,13,13.80
2013,08,26,02,14,13.80
2013,08,26,02,15,13.80
2013,08,26,02,16,13.80
2013,08,26,02,17,13.80
2013,08,26,02,18,13.80
2013,08,26,02,19,13.80
2013,08,26,02,20,13.80
2013,08,26,02,21,13.70
2013,08,26,02,22,13.70
2013,08,26,02,23,13.70
2013,08,26,02,24,13.70
2013,08,26,02,25,13.60
2013,08,26,02,26,13.60
2013,08,26,02,27,13.60
2013,08,26,02,28,13.50
2013,08,26,02,29,13.50
2013,08,26,02,30,13.50
2013,08,26,02,31,13.50
2013,08,26,02,32,13.50
2013,08,26,02,33,13.50
2013,08,26,02,34,13.50
2013,08,26,02,35,13.50
2013,08,26,02,36,13.50
2013,08,26,02,37,13.50
2013,08,26,02,38,13.50
2013,08,26,02,39,13.50
2013,08,26,02,40,13.50
2013,08,26,02,41,13.50
2013,08,26,02,42,13.40
2013,08,26,02,43,13.40
2013,08,26,02,44,13.40
2013,08,26,02,45,13.30
2013,08,26,02,46,13.30
2013,08,26,02,47,13.30
2013,08,26,02,48,13.30
2013,08,26,02,49,13.30
2013,08,26,02,50,13.30
2013,08,26,02,51,13.30
2013,08,26,02,52,13.30
2013,08,26,02,53,13.20
2013,08,26,02,54,13.20
2013,08,26,02,55,13.20
2013,08,26,02,56,13.20
2013,08,26,02,57,13.20
2013,08,26,02,58,13.20
2013,08,26,02,59,13.20
2013,08,26,03,00,13.20
2013,08,26,03,01,13.10
2013,08,26,03,02,13.10
2013,08,26,03,03,13.10
2013,08,26,03,06,13.00
2013,08,26,03,07,13.00
2013,08,26,03,08,13.00
2013,08,26,03,09,13.00
2013,08,26,03,10,13.10
2013,08,26,03,11,13.10
2013,08,26,03,12,13.10
2013,08,26,03,13,13.10
2013,08,26,03,14,13.10
2013,08,26,03,15,13.10
2013,08,26,03,16,13.10
2013,08,26,03,17,13.00
2013,08,26,03,18,13.00
2013,08,26,03,19,13.00
2013,08,26,03,20,13.00
2013,08,26,03,21,12.90
2013,08,26,03,22,12.90
2013,08,26,03,23,12.90
2013,08,26,03,24,12.90
2013,08,26,03,25,12.90
2013,08,26,03,26,12.90
2013,08,26,03,27,12.80
2013,08,26,03,28,12.80
2013,08,26,03,29,12.80
2013,08,26,03,30,12.80
2013,08,26,03,31,12.70
2013,08,26,03,32,12.70
2013,08,26,03,33,12.60
2013,08,26,03,34,12.60
2013,08,26,03,35,12.60
2013,08,26,03,36,12.60
2013,08,26,03,37,12.60
2013,08,26,03,38,12.60
2013,08,26,03,39,12.60
2013,08,26,03,40,12.70
2013,08,26,03,41,12.70
2013,08,26,03,42,12.70
2013,08,26,03,43,12.70
2013,08,26,03,44,12.70
2013,08,26,03,45,12.70
2013,08,26,03,46,12.70
2013,08,26,03,47,12.80
2013,08,26,03,48,12.80
2013,08,26,03,49,12.80
2013,08,26,03,50,12.80
2013,08,26,03,51,12.80
2013,08,26,03,52,12.80
2013,08,26,03,53,12.80
2013,08,26,03,54,12.80
2013,08,26,03,55,12.80
2013,08,26,03,56,12.80
2013,08,26,03,57,12.80
2013,08,26,03,58,12.70
2013,08,26,03,59,12.70
2013,08,26,04,00,12.70
2013,08,26,04,01,12.70
2013,08,26,04,02,12.70
2013,08,26,04,03,12.70
2013,08,26,04,04,12.60
2013,08,26,04,05,12.70
2013,08,26,04,06,12.60
2013,08,26,04,07,12.60
2013,08,26,04,08,12.60
2013,08,26,04,09,12.60
2013,08,26,04,10,12.60
2013,08,26,04,11,12.60
2013,08,26,04,12,12.60
2013,08,26,04,13,12.60
2013,08,26,04,14,12.60
2013,08,26,04,15,12.60
2013,08,26,04,16,12.60
2013,08,26,04,17,12.60
2013,08,26,04,18,12.60
2013,08,26,04,19,12.60
2013,08,26,04,20,12.60
2013,08,26,04,21,12.60
2013,08,26,04,22,12.60
2013,08,26,04,23,12.60
2013,08,26,04,24,12.60
2013,08,26,04,25,12.60
2013,08,26,04,26,12.60
2013,08,26,04,27,12.60
2013,08,26,04,28,12.70
2013,08,26,04,29,12.60
2013,08,26,04,30,12.60
2013,08,26,04,31,12.60
2013,08,26,04,32,12.60
2013,08,26,04,33,12.60
2013,08,26,04,34,12.60
2013,08,26,04,35,12.60
2013,08,26,04,36,12.60
2013,08,26,04,37,12.60
2013,08,26,04,38,12.60
2013,08,26,04,39,12.60
2013,08,26,04,40,12.50
2013,08,26,04,41,12.50
2013,08,26,04,42,12.50
2013,08,26,04,43,12.40
2013,08,26,04,44,12.40
2013,08,26,04,45,12.40
2013,08,26,04,46,12.40
2013,08,26,04,47,12.40
2013,08,26,04,48,12.40
2013,08,26,04,49,12.40
2013,08,26,04,50,12.40
2013,08,26,04,51,12.30
2013,08,26,04,52,12.40
2013,08,26,04,53,12.30
2013,08,26,04,54,12.30
2013,08,26,04,55,12.30
2013,08,26,04,56,12.30
2013,08,26,04,57,12.30
2013,08,26,04,58,12.30
2013,08,26,04,59,12.20
2013,08,26,05,00,12.20
2013,08,26,05,01,12.10
2013,08,26,05,02,12.00
2013,08,26,05,03,12.00
2013,08,26,05,04,11.90
2013,08,26,05,05,11.90
2013,08,26,05,06,11.90
2013,08,26,05,07,11.90
2013,08,26,05,08,11.90
2013,08,26,05,09,11.90
2013,08,26,05,10,11.80
2013,08,26,05,11,11.80
2013,08,26,05,12,11.80
2013,08,26,05,13,11.80
2013,08,26,05,14,11.80
2013,08,26,05,15,11.80
2013,08,26,05,16,11.80
2013,08,26,05,17,11.80
2013,08,26,05,18,11.80
2013,08,26,05,19,11.80
2013,08,26,05,20,11.80
2013,08,26,05,21,11.80
2013,08,26,05,22,11.80
2013,08,26,05,23,11.80
2013,08,26,05,24,11.80
2013,08,26,05,25,11.80
2013,08,26,05,26,11.80
2013,08,26,05,27,11.80
2013,08,26,05,28,11.80
2013,08,26,05,29,11.90
2013,08,26,05,30,11.90
2013,08,26,05,31,11.90
2013,08,26,05,32,11.90
2013,08,26,05,33,11.90
2013,08,26,05,34,11.90
2013,08,26,05,35,11.90
2013,08,26,05,36,11.90
2013,08,26,05,37,11.90
2013,08,26,05,38,11.90
2013,08,26,05,39,11.90
2013,08,26,05,40,11.80
2013,08,26,05,41,11.80
2013,08,26,05,42,11.80
2013,08,26,05,43,11.80
2013,08,26,05,44,11.80
2013,08,26,05,45,11.80
2013,08,26,05,46,11.80
2013,08,26,05,47,11.80
2013,08,26,05,48,11.80
2013,08,26,05,49,11.80
2013,08,26,05,50,11.80
2013,08,26,05,51,11.80
2013,08,26,05,52,11.80
2013,08,26,05,53,11.80
2013,08,26,05,54,11.80
2013,08,26,05,55,11.70
2013,08,26,05,56,11.70
2013,08,26,05,57,11.70
2013,08,26,05,58,11.60
2013,08,26,05,59,11.60
2013,08,26,06,00,11.50
2013,08,26,06,01,11.50
2013,08,26,06,02,11.40
2013,08,26,06,03,11.40
2013,08,26,06,04,11.40
2013,08,26,06,05,11.30
2013,08,26,06,06,11.40
2013,08,26,06,07,11.40
2013,08,26,06,08,11.30
2013,08,26,06,09,11.30
2013,08,26,06,10,11.30
2013,08,26,06,11,11.30
2013,08,26,06,12,11.20
2013,08,26,06,13,11.20
2013,08,26,06,14,11.20
2013,08,26,06,15,11.20
2013,08,26,06,16,11.20
2013,08,26,06,17,11.20
2013,08,26,06,18,11.20
2013,08,26,06,19,11.20
2013,08,26,06,20,11.20
2013,08,26,06,21,11.20
2013,08,26,06,22,11.20
2013,08,26,06,23,11.10
2013,08,26,06,24,11.10
2013,08,26,06,25,11.10
2013,08,26,06,26,11.10
2013,08,26,06,27,11.10
2013,08,26,06,28,11.10
2013,08,26,06,29,11.10
2013,08,26,06,30,11.10
2013,08,26,06,31,11.10
2013,08,26,06,32,11.20
2013,08,26,06,33,11.20
2013,08,26,06,34,11.20
2013,08,26,06,35,11.20
2013,08,26,06,36,11.20
2013,08,26,06,37,11.10
2013,08,26,06,38,11.10
2013,08,26,06,39,11.10
2013,08,26,06,40,11.00
2013,08,26,06,41,11.00
2013,08,26,06,42,11.00
2013,08,26,06,43,10.90
2013,08,26,06,44,10.90
2013,08,26,06,45,10.80
2013,08,26,06,46,10.80
2013,08,26,06,47,10.80
2013,08,26,06,48,10.70
2013,08,26,06,49,10.70
2013,08,26,06,50,10.70
2013,08,26,06,51,10.70
2013,08,26,06,52,10.70
2013,08,26,06,53,10.60
2013,08,26,06,54,10.60
2013,08,26,06,55,10.60
2013,08,26,06,56,10.60
2013,08,26,06,57,10.60
2013,08,26,06,58,10.60
2013,08,26,06,59,10.60
2013,08,26,07,00,10.60
2013,08,26,07,01,10.60
2013,08,26,07,02,10.60
2013,08,26,07,03,10.60
2013,08,26,07,04,10.50
2013,08,26,07,05,10.50
2013,08,26,07,06,10.50
2013,08,26,07,07,10.50
2013,08,26,07,08,10.40
2013,08,26,07,09,10.40
2013,08,26,07,10,10.40
2013,08,26,07,11,10.40
2013,08,26,07,12,10.40
2013,08,26,07,13,10.40
2013,08,26,07,14,10.40
2013,08,26,07,15,10.40
2013,08,26,07,16,10.40
2013,08,26,07,17,10.30
2013,08,26,07,18,10.30
2013,08,26,07,19,10.30
2013,08,26,07,20,10.30
2013,08,26,07,21,10.40
2013,08,26,07,22,10.40
2013,08,26,07,23,10.40
2013,08,26,07,24,10.40
2013,08,26,07,25,10.40
2013,08,26,07,26,10.40
2013,08,26,07,27,10.40
2013,08,26,07,28,10.30
2013,08,26,07,29,10.30
2013,08,26,07,30,10.30
2013,08,26,07,31,10.30
2013,08,26,07,32,10.30
2013,08,26,07,33,10.30
2013,08,26,07,34,10.30
2013,08,26,07,35,10.30
2013,08,26,07,36,10.30
2013,08,26,07,37,10.30
2013,08,26,07,38,10.30
2013,08,26,07,39,10.30
2013,08,26,07,40,10.30
2013,08,26,07,41,10.30
2013,08,26,07,42,10.30
2013,08,26,07,43,10.30
2013,08,26,07,44,10.40
2013,08,26,07,45,10.40
2013,08,26,07,46,10.40
2013,08,26,07,47,10.40
2013,08,26,07,48,10.50
2013,08,26,07,49,10.60
2013,08,26,07,50,10.60
2013,08,26,07,51,10.70
2013,08,26,07,52,10.80
2013,08,26,07,53,10.90
2013,08,26,07,54,11.00
2013,08,26,07,55,11.20
2013,08,26,07,56,11.30
2013,08,26,07,57,11.30
2013,08,26,07,58,11.40
2013,08,26,07,59,11.50
2013,08,26,08,00,11.60
2013,08,26,08,01,11.70
2013,08,26,08,02,11.70
2013,08,26,08,03,11.80
2013,08,26,08,04,11.90
2013,08,26,08,05,12.00
2013,08,26,08,06,12.10
2013,08,26,08,07,12.20
2013,08,26,08,08,12.20
2013,08,26,08,09,12.30
2013,08,26,08,10,12.40
2013,08,26,08,11,12.40
2013,08,26,08,12,12.50
2013,08,26,08,13,12.50
2013,08,26,08,14,12.60
2013,08,26,08,15,12.70
2013,08,26,08,16,12.70
2013,08,26,08,17,12.70
2013,08,26,08,18,12.80
2013,08,26,08,19,12.80
2013,08,26,08,20,12.90
2013,08,26,08,21,12.90
2013,08,26,08,22,12.90
2013,08,26,08,23,12.90
2013,08,26,08,24,13.00
2013,08,26,08,25,13.00
2013,08,26,08,26,13.10
2013,08,26,08,27,13.10
2013,08,26,08,28,13.10
2013,08,26,08,29,13.10
2013,08,26,08,30,13.10
2013,08,26,08,31,13.10
2013,08,26,08,32,13.20
2013,08,26,08,33,13.20
2013,08,26,08,34,13.20
2013,08,26,08,35,13.20
2013,08,26,08,36,13.20
2013,08,26,08,37,13.20
2013,08,26,08,38,13.20
2013,08,26,08,39,13.20
2013,08,26,08,40,13.30
2013,08,26,08,41,13.30
2013,08,26,08,42,13.30
2013,08,26,08,43,13.30
2013,08,26,08,44,13.30
2013,08,26,08,45,13.40
2013,08,26,08,46,13.40
2013,08,26,08,47,13.40
2013,08,26,08,48,13.40
2013,08,26,08,49,13.50
2013,08,26,08,50,13.50
2013,08,26,08,51,13.60
2013,08,26,08,52,13.70
2013,08,26,08,53,13.70
2013,08,26,08,54,13.80
2013,08,26,08,55,13.80
2013,08,26,08,56,13.90
2013,08,26,08,57,13.90
2013,08,26,08,58,14.00
2013,08,26,08,59,14.10
2013,08,26,09,00,14.10
2013,08,26,09,01,14.20
2013,08,26,09,02,14.30
2013,08,26,09,03,14.30
2013,08,26,09,04,14.40
2013,08,26,09,05,14.40
2013,08,26,09,06,14.50
2013,08,26,09,07,14.60
2013,08,26,09,08,14.60
2013,08,26,09,09,14.60
2013,08,26,09,10,14.60
2013,08,26,09,11,14.60
2013,08,26,09,12,14.60
2013,08,26,09,13,14.70
2013,08,26,09,14,14.70
2013,08,26,09,15,14.70
2013,08,26,09,16,14.70
2013,08,26,09,17,14.70
2013,08,26,09,18,14.70
2013,08,26,09,19,14.80
2013,08,26,09,20,14.80
2013,08,26,09,21,14.80
2013,08,26,09,22,14.90
2013,08,26,09,23,15.00
2013,08,26,09,24,15.00
2013,08,26,09,25,15.00
2013,08,26,09,26,15.00
2013,08,26,09,27,15.00
2013,08,26,09,28,15.10
2013,08,26,09,29,15.20
2013,08,26,09,30,15.30
2013,08,26,09,31,15.30
2013,08,26,09,32,15.40
2013,08,26,09,33,15.40
2013,08,26,09,34,15.50
2013,08,26,09,35,15.60
2013,08,26,09,36,15.60
2013,08,26,09,37,15.70
2013,08,26,09,38,15.70
2013,08,26,09,39,15.80
2013,08,26,09,40,15.80
2013,08,26,09,41,15.90
2013,08,26,09,42,15.90
2013,08,26,09,43,16.00
2013,08,26,09,44,16.00
2013,08,26,09,45,16.10
2013,08,26,09,46,16.10
2013,08,26,09,47,16.10
2013,08,26,09,48,16.10
2013,08,26,09,49,16.10
2013,08,26,09,50,16.10
2013,08,26,09,51,16.10
2013,08,26,09,52,16.20
2013,08,26,09,53,16.20
2013,08,26,09,54,16.30
2013,08,26,09,55,16.30
2013,08,26,09,56,16.40
2013,08,26,09,57,16.40
2013,08,26,09,58,16.40
2013,08,26,09,59,16.40
2013,08,26,10,00,16.50
2013,08,26,10,01,16.50
2013,08,26,10,02,16.60
2013,08,26,10,03,16.70
2013,08,26,10,04,16.80
2013,08,26,10,05,16.90
2013,08,26,10,06,17.00
2013,08,26,10,07,17.00
2013,08,26,10,08,17.10
2013,08,26,10,09,17.10
2013,08,26,10,10,17.00
2013,08,26,10,11,17.10
2013,08,26,10,12,17.10
2013,08,26,10,13,17.10
2013,08,26,10,14,17.10
2013,08,26,10,15,17.10
2013,08,26,10,16,17.20
2013,08,26,10,17,17.20
2013,08,26,10,18,17.20
2013,08,26,10,19,17.30
2013,08,26,10,20,17.40
2013,08,26,10,21,17.50
2013,08,26,10,22,17.60
2013,08,26,10,23,17.70
2013,08,26,10,24,17.80
2013,08,26,10,25,17.80
2013,08,26,10,26,17.90
2013,08,26,10,27,17.90
2013,08,26,10,28,17.90
2013,08,26,10,29,18.00
2013,08,26,10,30,18.00
2013,08,26,10,31,18.00
2013,08,26,10,32,18.00
2013,08,26,10,33,18.00
2013,08,26,10,34,18.10
2013,08,26,10,35,18.20
2013,08,26,10,36,18.20
2013,08,26,10,37,18.20
2013,08,26,10,38,18.20
2013,08,26,10,39,18.20
2013,08,26,10,40,18.30
2013,08,26,10,41,18.40
2013,08,26,10,42,18.40
2013,08,26,10,43,18.50
2013,08,26,10,44,18.60
2013,08,26,10,45,18.60
2013,08,26,10,46,18.60
2013,08,26,10,47,18.60
2013,08,26,10,48,18.50
2013,08,26,10,49,18.40
2013,08,26,10,50,18.30
2013,08,26,10,51,18.20
2013,08,26,10,52,18.20
2013,08,26,10,53,18.20
2013,08,26,10,54,18.20
2013,08,26,10,55,18.20
2013,08,26,10,56,18.30
2013,08,26,10,57,18.30
2013,08,26,10,58,18.40
2013,08,26,10,59,18.40
2013,08,26,11,00,18.50
2013,08,26,11,01,18.60
2013,08,26,11,02,18.70
2013,08,26,11,03,18.60
2013,08,26,11,04,18.60
2013,08,26,11,05,18.70
2013,08,26,11,06,18.70
2013,08,26,11,07,18.80
2013,08,26,11,08,18.80
2013,08,26,11,09,18.80
2013,08,26,11,10,18.70
2013,08,26,11,11,18.70
2013,08,26,11,12,18.60
2013,08,26,11,13,18.60
2013,08,26,11,14,18.50
2013,08,26,11,15,18.40
2013,08,26,11,16,18.20
2013,08,26,11,17,18.20
2013,08,26,11,18,18.20
2013,08,26,11,19,18.30
2013,08,26,11,20,18.30
2013,08,26,11,21,18.30
2013,08,26,11,22,18.30
2013,08,26,11,23,18.40
2013,08,26,11,24,18.40
2013,08,26,11,25,18.50
2013,08,26,11,26,18.60
2013,08,26,11,27,18.70
2013,08,26,11,28,18.70
2013,08,26,11,29,18.60
2013,08,26,11,30,18.60
2013,08,26,11,31,18.60
2013,08,26,11,32,18.70
2013,08,26,11,33,18.80
2013,08,26,11,34,18.80
2013,08,26,11,35,18.90
2013,08,26,11,36,19.00
2013,08,26,11,37,19.00
2013,08,26,11,38,19.10
2013,08,26,11,39,19.20
2013,08,26,11,40,19.30
2013,08,26,11,41,19.40
2013,08,26,11,42,19.50
2013,08,26,11,43,19.60
2013,08,26,11,44,19.80
2013,08,26,11,45,19.90
2013,08,26,11,46,20.00
2013,08,26,11,47,20.10
2013,08,26,11,48,20.10
2013,08,26,11,49,20.10
2013,08,26,11,50,20.00
2013,08,26,11,51,20.00
2013,08,26,11,52,20.00
2013,08,26,11,53,20.00
2013,08,26,11,54,20.00
2013,08,26,11,55,19.90
2013,08,26,11,56,19.90
2013,08,26,11,57,19.90
2013,08,26,11,58,19.90
2013,08,26,11,59,19.90
2013,08,26,12,00,19.90
2013,08,26,12,01,19.80
2013,08,26,12,02,19.80
2013,08,26,12,03,19.90
2013,08,26,12,04,19.90
2013,08,26,12,05,20.00
2013,08,26,12,06,20.10
2013,08,26,12,07,20.10
2013,08,26,12,08,20.30
2013,08,26,12,09,20.30
2013,08,26,12,10,20.30
2013,08,26,12,11,20.30
2013,08,26,12,12,20.30
2013,08,26,12,13,20.30
2013,08,26,12,14,20.20
2013,08,26,12,15,20.20
2013,08,26,12,16,20.10
2013,08,26,12,17,20.10
2013,08,26,12,18,20.10
2013,08,26,12,19,20.10
2013,08,26,12,20,20.10
2013,08,26,12,21,20.00
2013,08,26,12,22,19.90
2013,08,26,12,23,19.80
2013,08,26,12,24,19.80
2013,08,26,12,25,19.70
2013,08,26,12,26,19.70
2013,08,26,12,27,19.70
2013,08,26,12,28,19.70
2013,08,26,12,29,19.70
2013,08,26,12,30,19.70
2013,08,26,12,31,19.70
2013,08,26,12,32,19.60
2013,08,26,12,33,19.50
2013,08,26,12,34,19.40
2013,08,26,12,35,19.40
2013,08,26,12,36,19.40
2013,08,26,12,37,19.40
2013,08,26,12,38,19.50
2013,08,26,12,39,19.50
2013,08,26,12,40,19.60
2013,08,26,12,41,19.70
2013,08,26,12,42,19.70
2013,08,26,12,43,19.70
2013,08,26,12,44,19.70
2013,08,26,12,45,19.70
2013,08,26,12,46,19.70
2013,08,26,12,47,19.70
2013,08,26,12,48,19.70
2013,08,26,12,49,19.70
2013,08,26,12,50,19.70
2013,08,26,12,51,19.70
2013,08,26,12,52,19.70
2013,08,26,12,53,19.80
2013,08,26,12,54,19.80
2013,08,26,12,55,19.90
2013,08,26,12,56,19.90
2013,08,26,12,57,20.00
2013,08,26,12,58,20.10
2013,08,26,12,59,20.20
2013,08,26,13,00,20.30
2013,08,26,13,01,20.30
2013,08,26,13,02,20.30
2013,08,26,13,03,20.30
2013,08,26,13,04,20.30
2013,08,26,13,05,20.30
2013,08,26,13,06,20.20
2013,08,26,13,07,20.20
2013,08,26,13,08,20.20
2013,08,26,13,09,20.10
2013,08,26,13,10,20.00
2013,08,26,13,11,20.00
2013,08,26,13,12,20.00
2013,08,26,13,13,20.10
2013,08,26,13,14,20.10
2013,08,26,13,15,20.00
2013,08,26,13,16,20.00
2013,08,26,13,17,20.00
2013,08,26,13,18,20.00
2013,08,26,13,19,20.00
2013,08,26,13,20,20.00
2013,08,26,13,21,19.90
2013,08,26,13,22,19.80
2013,08,26,13,23,19.80
2013,08,26,13,24,19.80
2013,08,26,13,25,19.80
2013,08,26,13,26,19.70
2013,08,26,13,27,19.70
2013,08,26,13,28,19.70
2013,08,26,13,29,19.70
2013,08,26,13,30,19.70
2013,08,26,13,31,19.70
2013,08,26,13,32,19.60
2013,08,26,13,33,19.60
2013,08,26,13,34,19.60
2013,08,26,13,35,19.60
2013,08,26,13,36,19.60
2013,08,26,13,37,19.50
2013,08,26,13,38,19.40
2013,08,26,13,39,19.40
2013,08,26,13,40,19.30
2013,08,26,13,41,19.30
2013,08,26,13,42,19.20
2013,08,26,13,43,19.20
2013,08,26,13,44,19.20
2013,08,26,13,45,19.20
2013,08,26,13,46,19.10
2013,08,26,13,47,19.10
2013,08,26,13,48,19.10
2013,08,26,13,49,19.10
2013,08,26,13,50,19.00
2013,08,26,13,51,18.90
2013,08,26,13,52,18.90
2013,08,26,13,53,18.80
2013,08,26,13,54,18.80
2013,08,26,13,55,18.70
2013,08,26,13,56,18.70
2013,08,26,13,57,18.70
2013,08,26,13,58,18.60
2013,08,26,13,59,18.50
2013,08,26,14,00,18.50
2013,08,26,14,01,18.40
2013,08,26,14,02,18.40
2013,08,26,14,03,18.40
2013,08,26,14,04,18.30
2013,08,26,14,05,18.30
2013,08,26,14,06,18.30
2013,08,26,14,07,18.30
2013,08,26,14,08,18.30
2013,08,26,14,09,18.30
2013,08,26,14,10,18.30
2013,08,26,14,11,18.30
2013,08,26,14,12,18.30
2013,08,26,14,13,18.30
2013,08,26,14,14,18.30
2013,08,26,14,15,18.30
2013,08,26,14,16,18.30
2013,08,26,14,17,18.30
2013,08,26,14,18,18.30
2013,08,26,14,19,18.30
2013,08,26,14,20,18.40
2013,08,26,14,21,18.40
2013,08,26,14,22,18.40
2013,08,26,14,23,18.50
2013,08,26,14,24,18.50
2013,08,26,14,25,18.50
2013,08,26,14,26,18.40
2013,08,26,14,27,18.40
2013,08,26,14,28,18.40
2013,08,26,14,29,18.50
2013,08,26,14,30,18.50
2013,08,26,14,31,18.50
2013,08,26,14,32,18.60
2013,08,26,14,33,18.60
2013,08,26,14,34,18.70
2013,08,26,14,35,18.70
2013,08,26,14,36,18.80
2013,08,26,14,37,18.80
2013,08,26,14,38,18.80
2013,08,26,14,39,18.90
2013,08,26,14,40,18.90
2013,08,26,14,41,18.90
2013,08,26,14,42,19.00
2013,08,26,14,43,19.10
2013,08,26,14,44,19.10
2013,08,26,14,45,19.10
2013,08,26,14,46,19.10
2013,08,26,14,47,19.10
2013,08,26,14,48,19.10
2013,08,26,14,49,19.10
2013,08,26,14,50,19.10
2013,08,26,14,51,19.20
2013,08,26,14,52,19.20
2013,08,26,14,53,19.20
2013,08,26,14,54,19.20
2013,08,26,14,55,19.20
2013,08,26,14,56,19.20
2013,08,26,14,57,19.20
2013,08,26,14,58,19.20
2013,08,26,14,59,19.20
2013,08,26,15,00,19.20
2013,08,26,15,01,19.20
2013,08,26,15,02,19.20
2013,08,26,15,03,19.20
2013,08,26,15,04,19.20
2013,08,26,15,05,19.20
2013,08,26,15,06,19.30
2013,08,26,15,07,19.30
2013,08,26,15,08,19.30
2013,08,26,15,09,19.30
2013,08,26,15,10,19.20
2013,08,26,15,11,19.30
2013,08,26,15,12,19.20
2013,08,26,15,13,19.20
2013,08,26,15,14,19.20
2013,08,26,15,15,19.10
2013,08,26,15,16,19.10
2013,08,26,15,17,19.00
2013,08,26,15,18,18.90
2013,08,26,15,19,18.90
2013,08,26,15,20,18.90
2013,08,26,15,21,18.80
2013,08,26,15,22,18.70
2013,08,26,15,23,18.70
2013,08,26,15,24,18.70
2013,08,26,15,25,18.60
2013,08,26,15,26,18.60
2013,08,26,15,27,18.50
2013,08,26,15,28,18.50
2013,08,26,15,29,18.50
2013,08,26,15,30,18.50
2013,08,26,15,31,18.50
2013,08,26,15,32,18.50
2013,08,26,15,33,18.50
2013,08,26,15,34,18.50
2013,08,26,15,35,18.50
2013,08,26,15,36,18.50
2013,08,26,15,37,18.60
2013,08,26,15,38,18.60
2013,08,26,15,39,18.60
2013,08,26,15,40,18.70
2013,08,26,15,41,18.70
2013,08,26,15,42,18.70
2013,08,26,15,43,18.70
2013,08,26,15,44,18.70
2013,08,26,15,45,18.70
2013,08,26,15,46,18.70
2013,08,26,15,47,18.70
2013,08,26,15,48,18.70
2013,08,26,15,49,18.70
2013,08,26,15,50,18.60
2013,08,26,15,51,18.60
2013,08,26,15,52,18.60
2013,08,26,15,53,18.60
2013,08,26,15,54,18.60
2013,08,26,15,55,18.50
2013,08,26,15,56,18.50
2013,08,26,15,57,18.50
2013,08,26,15,58,18.40
2013,08,26,15,59,18.40
2013,08,26,16,00,18.30
2013,08,26,16,01,18.30
2013,08,26,16,02,18.30
2013,08,26,16,03,18.20
2013,08,26,16,04,18.20
2013,08,26,16,05,18.20
2013,08,26,16,06,18.20
2013,08,26,16,07,18.20
2013,08,26,16,08,18.20
2013,08,26,16,09,18.20
2013,08,26,16,10,18.20
2013,08,26,16,11,18.20
2013,08,26,16,12,18.20
2013,08,26,16,13,18.10
2013,08,26,16,14,18.10
2013,08,26,16,15,18.00
2013,08,26,16,16,18.00
2013,08,26,16,17,17.90
2013,08,26,16,18,17.90
2013,08,26,16,19,17.80
2013,08,26,16,20,17.80
2013,08,26,16,21,17.80
2013,08,26,16,22,17.80
2013,08,26,16,23,17.70
2013,08,26,16,24,17.70
2013,08,26,16,25,17.70
2013,08,26,16,26,17.70
2013,08,26,16,27,17.70
2013,08,26,16,28,17.70
2013,08,26,16,29,17.60
2013,08,26,16,30,17.60
2013,08,26,16,31,17.60
2013,08,26,16,32,17.60
2013,08,26,16,33,17.60
2013,08,26,16,34,17.60
2013,08,26,16,35,17.60
2013,08,26,16,36,17.60
2013,08,26,16,37,17.60
2013,08,26,16,38,17.60
2013,08,26,16,39,17.60
2013,08,26,16,40,17.60
2013,08,26,16,41,17.70
2013,08,26,16,42,17.70
2013,08,26,16,43,17.70
2013,08,26,16,44,17.70
2013,08,26,16,45,17.70
2013,08,26,16,46,17.70
2013,08,26,16,47,17.70
2013,08,26,16,48,17.70
2013,08,26,16,49,17.70
2013,08,26,16,50,17.70
2013,08,26,16,51,17.70
2013,08,26,16,52,17.60
2013,08,26,16,53,17.60
2013,08,26,16,54,17.60
2013,08,26,16,55,17.50
2013,08,26,16,56,17.50
2013,08,26,16,57,17.40
2013,08,26,16,58,17.30
2013,08,26,16,59,17.30
2013,08,26,17,00,17.20
2013,08,26,17,01,17.20
2013,08,26,17,02,17.20
2013,08,26,17,03,17.20
2013,08,26,17,04,17.10
2013,08,26,17,05,17.10
2013,08,26,17,06,17.10
2013,08,26,17,07,17.00
2013,08,26,17,08,16.90
2013,08,26,17,09,16.90
2013,08,26,17,10,16.80
2013,08,26,17,11,16.80
2013,08,26,17,12,16.80
2013,08,26,17,13,16.70
2013,08,26,17,14,16.70
2013,08,26,17,15,16.60
2013,08,26,17,16,16.60
2013,08,26,17,17,16.50
2013,08,26,17,18,16.50
2013,08,26,17,19,16.40
2013,08,26,17,20,16.40
2013,08,26,17,21,16.30